Regional Weather Roundup
Issued by NWS Glasgow, MT

Home | Current Version | Previous Version | Text Only | Print | Product List | Glossary On
Versions: 1 2 3 4 5 6 7 8 9 10 11 12 13 14 15 16 17 18 19 20 21 22 23 24 25 26 27 28 29 30 31 32 33 34 35 36 37 38 39 40 41 42 43 44 45 46 47 48 49 50
000
ASUS45 KGGW 270815
RWRGGW
HOURLY WEATHER ROUNDUP FOR NORTHEAST MONTANA
NATIONAL WEATHER SERVICE GLASGOW MONTANA
100 AM MST TUE JAN 27 2015

NOTE: "FAIR" INDICATES FEW OR NO CLOUDS BELOW 12,000 FEET WITH NO
SIGNIFICANT WEATHER AND/OR OBSTRUCTIONS TO VISISBILITY.

NORTHEAST MONTANA


CITY           SKY/WX    TMP DP  RH WIND       PRES   REMARKS
GLASGOW        PTCLDY    34  30  85 E8        29.83S
PLENTYWOOD       N/A     33  32  96 E3          N/A
WOLF POINT     PTCLDY    29  26  89 CALM      29.85F
JORDAN           N/A     31  28  89 CALM      29.85F
WINNETT          N/A     36  30  79 SW3         N/A
SIDNEY         CLEAR     28  28 100 CALM      29.87F
GLENDIVE       PTCLDY    34  30  86 S9        29.87F
MALTA            N/A     30  30 100 SE1         N/A
SCOBEY           N/A     30  27  88 CALM      29.81F

FORT PECK REPORTS


CITY           SKY/WX    TMP DP  RH WIND       PRES   REMARKS
FORT PECK        N/A     35  32  88 SE7         N/A
THE PINES        N/A     33  30  88 SW5         N/A

SOUTHEAST MONTANA


CITY           SKY/WX    TMP DP  RH WIND       PRES   REMARKS
BILLINGS       MOCLDY    52  26  36 SW24      29.97F
MILES CITY     PTCLDY    38  30  73 S7        29.90S
BAKER          CLEAR     31  27  85 CALM      29.90F
LIVINGSTON     CLEAR     53  24  32 W24G30    30.02F

CENTRAL MONTANA


CITY           SKY/WX    TMP DP  RH WIND       PRES   REMARKS
HAVRE          MOCLDY    46  31  55 SW17      29.83R
LEWISTOWN      MOCLDY    47  29  49 SW20      29.93F
GREAT FALLS    PTCLDY    53  27  36 SW18      29.92F
CUT BANK       MOCLDY    53  24  32 SW21      29.86F
HELENA         CLEAR     33  28  81 W3        30.04F
BUTTE          CLEAR     28  24  85 SE5       30.10F
BOZEMAN        CLEAR     29  25  85 S3        30.07F

WESTERN MONTANA


CITY           SKY/WX    TMP DP  RH WIND       PRES   REMARKS
MISSOULA       PTCLDY    26  24  92 CALM      30.08S
KALISPELL      NOT AVBL

NORTH DAKOTA


CITY           SKY/WX    TMP DP  RH WIND       PRES   REMARKS
WILLISTON      CLEAR     28  26  92 CALM      29.86S
DICKINSON      CLEAR     33  28  81 S6        29.86F
MINOT          PTCLDY    31  28  89 SE3       29.89F
BISMARCK       PTCLDY    30  28  92 SE3       29.94F

SOUTHERN SASKATCHEWAN


CITY           SKY/WX    TMP DP  RH WIND       PRES   REMARKS
REGINA         MOCLDY    30  28  93 E8        29.80F
ESTEVAN        CLEAR     28  27  93 SE8       29.84F
SWIFT CURRENT  CLEAR     39  32  75 SW14G20   29.73F



USA.gov is the U.S. government's official web portal to all federal, state and local government web resources and services.